Weather History for Wilmington, NC

Change the Weather History Date:

Friday, April 19, 2013

  Actual Average Record
Temperature  
Mean Temperature 74 °F 64 °F  
Max Temperature 81 °F 75 °F 89 °F (1958)
Min Temperature 67 °F 53 °F 28 °F (1875)
Degree Days  
Heating Degree Days 0 4  
Month to date heating degree days 84 101  
Since 1 July heating degree days 2361 2353  
Cooling Degree Days 9 2  
Month to date cooling degree days 43 32  
Year to date cooling degree days 57 53  
Growing Degree Days 24 (Base 50)    
Moisture  
Dew Point 67 °F    
Average Humidity 79    
Maximum Humidity 90    
Minimum Humidity 67    
Precipitation  
Precipitation 1.17 in 0.09 in 3.32 in (1951)
Month to date precipitation 4.05 1.78  
Year to date precipitation 13.76 13.37  
Snow  
Snow 0.00 in 0.00 in - ()
Month to date snowfall 0.0 0.0  
Since 1 July snowfall T 1.7  
Snow Depth 0.00 in    
Sea Level Pressure  
Sea Level Pressure 29.96 in    
Wind  
Wind Speed 13 mph (South)    
Max Wind Speed 30 mph    
Max Gust Speed 41 mph    
Visibility 9 miles    
Events Fog , Rain , Thunderstorm    
T = Trace of Precipitation, MM = Missing Value Source: NWS Daily Summary

Daily Weather History Graph

Daily Weather History Graph

Search for Another Location

Airport:

Trip Planner

Search our weather history database for the weather conditions in past years. The results will help you decide how hot, cold, wet, or windy it might be!

Date:

Astronomy

Apr. 19, 2013 Rise Set
Actual Time 6:35 AM EDT 7:46 PM EDT
Civil Twilight 6:09 AM EDT 8:12 PM EDT
Nautical Twilight 5:38 AM EDT 8:43 PM EDT
Astronomical Twilight 5:06 AM EDT 9:16 PM EDT
Moon 1:45 PM EDT 2:32 AM EDT
Length of Visible Light 14h 03m
Length of Day
13h 11m
First Quarter, 61% of the Moon is Illuminated
Apr 19
First Quarter
Apr 25
Full
May 2
Last Quarter
May 9
New
May 18
First Quarter

Hourly Weather History & Observations

Time (EDT) Temp. Heat Index Dew Point Humidity Pressure Visibility Wind Dir Wind Speed Gust Speed Precip Events Conditions
12:53 AM 69.1 °F - 64.9 °F 87% 30.07 in 10.0 mi SSE 4.6 mph - N/A   Clear
1:31 AM 69.8 °F - 66.2 °F 88% 30.05 in 10.0 mi SSE 6.9 mph - N/A   Overcast
1:40 AM 69.8 °F - 66.2 °F 88% 30.05 in 10.0 mi South 6.9 mph - N/A   Overcast
1:53 AM 70.0 °F - 66.0 °F 87% 30.04 in 10.0 mi SSE 5.8 mph - N/A   Overcast
2:45 AM 71.6 °F - 66.2 °F 83% 30.02 in 10.0 mi SSE 10.4 mph - N/A   Overcast
2:53 AM 70.0 °F - 66.0 °F 87% 30.02 in 10.0 mi South 15.0 mph 24.2 mph N/A   Overcast
3:53 AM 68.0 °F - 64.9 °F 90% 30.00 in 10.0 mi SSE 6.9 mph - N/A   Overcast
4:53 AM 69.1 °F - 66.0 °F 90% 29.99 in 10.0 mi South 9.2 mph - N/A   Mostly Cloudy
5:13 AM 69.8 °F - 66.2 °F 88% 29.99 in 10.0 mi South 6.9 mph - N/A   Mostly Cloudy
5:53 AM 70.0 °F - 66.0 °F 87% 29.99 in 10.0 mi South 10.4 mph - N/A   Overcast
6:53 AM 69.1 °F - 66.0 °F 90% 30.00 in 10.0 mi South 6.9 mph - N/A   Clear
7:53 AM 72.0 °F - 68.0 °F 87% 30.01 in 10.0 mi South 8.1 mph - N/A   Clear
8:53 AM 75.0 °F - 68.0 °F 79% 30.01 in 10.0 mi South 10.4 mph - N/A   Clear
9:20 AM 75.2 °F - 68.0 °F 78% 30.01 in 10.0 mi South 9.2 mph - N/A   Mostly Cloudy
9:53 AM 75.9 °F - 68.0 °F 76% 30.01 in 10.0 mi SSW 12.7 mph 23.0 mph 0.00 in   Mostly Cloudy
10:51 AM 80.6 °F 83.2 °F 68.0 °F 65% 30.00 in 10.0 mi SSW 16.1 mph 29.9 mph N/A   Mostly Cloudy
10:53 AM 79.0 °F - 66.9 °F 66% 30.00 in 10.0 mi SSW 18.4 mph 28.8 mph N/A   Mostly Cloudy
11:34 AM 80.6 °F 83.9 °F 69.8 °F 70% 29.99 in 10.0 mi South 21.9 mph 32.2 mph 0.00 in   Mostly Cloudy
11:53 AM 80.1 °F 82.7 °F 68.0 °F 67% 29.99 in 10.0 mi SSW 18.4 mph 34.5 mph 0.00 in   Mostly Cloudy
12:53 PM 79.0 °F - 68.0 °F 69% 29.98 in 10.0 mi South 16.1 mph 32.2 mph N/A   Scattered Clouds
1:22 PM 78.8 °F - 69.8 °F 74% 29.96 in 10.0 mi South 19.6 mph 27.6 mph N/A   Overcast
1:35 PM 75.2 °F - 69.8 °F 83% 29.97 in 1.5 mi SSW 27.6 mph 41.4 mph 0.00 in Rain Light Rain
1:42 PM 71.6 °F - 68.0 °F 88% 29.97 in 0.5 mi SSW 18.4 mph 41.4 mph 0.18 in Fog , Rain Heavy Rain
1:53 PM 72.0 °F - 68.0 °F 87% 29.97 in 10.0 mi South 13.8 mph 28.8 mph 0.45 in   Overcast
2:03 PM 73.4 °F - 69.8 °F 88% 29.96 in 10.0 mi South 12.7 mph - N/A   Mostly Cloudy
2:24 PM 75.2 °F - 71.6 °F 89% 29.95 in 10.0 mi SSW 13.8 mph 26.5 mph N/A   Mostly Cloudy
2:53 PM 75.9 °F - 70.0 °F 82% 29.93 in 10.0 mi South 16.1 mph 21.9 mph N/A   Overcast
3:39 PM 77.0 °F - 69.8 °F 78% 29.92 in 10.0 mi South 12.7 mph 20.7 mph N/A   Mostly Cloudy
3:53 PM 77.0 °F - 68.0 °F 74% 29.91 in 10.0 mi South 13.8 mph 25.3 mph N/A   Mostly Cloudy
4:53 PM 73.0 °F - 66.0 °F 79% 29.92 in 10.0 mi South 15.0 mph - N/A   Overcast
5:53 PM 75.0 °F - 66.9 °F 76% 29.90 in 10.0 mi South 17.3 mph 25.3 mph N/A   Mostly Cloudy
6:53 PM 73.9 °F - 66.0 °F 76% 29.90 in 10.0 mi South 15.0 mph 23.0 mph 0.00 in   Mostly Cloudy
7:53 PM 73.0 °F - 68.0 °F 84% 29.89 in 10.0 mi South 16.1 mph 26.5 mph N/A   Scattered Clouds
8:15 PM 73.4 °F - 69.8 °F 88% 29.90 in 10.0 mi South 19.6 mph 28.8 mph N/A   Mostly Cloudy
8:53 PM 73.0 °F - 69.1 °F 87% 29.90 in 10.0 mi South 16.1 mph 23.0 mph N/A   Mostly Cloudy
9:12 PM 73.4 °F - 69.8 °F 88% 29.90 in 10.0 mi South 16.1 mph 26.5 mph N/A   Mostly Cloudy
9:34 PM 73.4 °F - 69.8 °F 88% 29.90 in 10.0 mi South 17.3 mph 26.5 mph N/A   Overcast
9:53 PM 73.9 °F - 69.1 °F 85% 29.90 in 10.0 mi South 18.4 mph 26.5 mph N/A   Overcast
10:14 PM 73.4 °F - 69.8 °F 88% 29.90 in 10.0 mi South 15.0 mph 32.2 mph N/A   Overcast
10:31 PM 69.8 °F - 66.2 °F 88% 29.92 in 1.8 mi WSW 17.3 mph 35.7 mph 0.00 in Rain Heavy Rain
10:37 PM 69.8 °F - 66.2 °F 88% 29.92 in 0.8 mi SSW 12.7 mph 35.7 mph 0.16 in Rain Heavy Rain
10:43 PM 68.0 °F - 66.2 °F 94% 29.91 in 1.5 mi SW 11.5 mph 19.6 mph 0.37 in Rain Light Rain
10:45 PM 68.0 °F - 64.4 °F 88% 29.91 in 2.0 mi SSW 9.2 mph 19.6 mph 0.38 in Rain , Thunderstorm Light Thunderstorms and Rain
10:53 PM 68.0 °F - 64.9 °F 90% 29.91 in 7.0 mi SSW 9.2 mph - 0.38 in Rain , Thunderstorm Light Thunderstorms and Rain
11:17 PM 68.0 °F - 66.2 °F 94% 29.90 in 4.0 mi SW 8.1 mph - 0.10 in Rain Rain
11:53 PM 68.0 °F - 66.0 °F 93% 29.90 in 3.0 mi SSW 6.9 mph - 0.23 in Rain Heavy Rain